Preview of NWS' New Version of Forecast
This preview is not operational and should not be used for support decisions.

Regional Weather Roundup (RWR)

Issued by National Weather Service (NWS)

                            
000
ASCA42 TJSJ 200010
RWRPR 
PUERTO RICO/U.S. VIRGIN ISLANDS HOURLY WEATHER ROUNDUP
NATIONAL WEATHER SERVICE SAN JUAN PR
800 PM AST WED JUN 19 2019

PRZ001>002-007>008-010-200100-
PUERTO RICO
  
CITY           SKY/WX    TMP DP  RH WIND       PRES   REMARKS
SAN JUAN LMM   PTCLDY    82  75  78 E13       30.05S                  
AGUADILLA      PTCLDY    81  75  83 E13G25    30.06R                  
CEIBA          CLOUDY    84  75  74 E8G17     30.08R HX  92           
$$

VIZ001>002-200100-
U.S. VIRGIN ISLANDS
  
CITY           SKY/WX    TMP DP  RH WIND       PRES   REMARKS
CHARLOTTE AMA  CLEAR     82  73  74 E15G22    30.06R                  
CHRISTIANSTED  PTCLDY    81  73  78 E13       30.06R                  
$$

HOURLY WEATHER ROUNDUP FOR THE NEWS MEDIA
  
CITY           SKY/WX    TMP DP  RH WIND       PRES   REMARKS
ORLANDO        FAIR      73  72  96 SE6       30.01F                  
NEW YORK       FOG       65  65 100 E10       29.79R VSB 1/2          
NEWARK         DRIZZLE   68  67  96 E6        29.78S FOG              
CHICAGO        LGT RAIN  56  55  97 NE14      29.71F                  
HARTFORD       CLOUDY    65  61  87 S8        29.83S                  
BOSTON         CLOUDY    71  63  75 S8        29.81                   
DALLAS         PTSUNNY   95  75  52 S12G21    29.64S HX 107           
PHILADELPHIA   MOCLDY    74  71  91 NE7G20    29.73R                  
LOS ANGELES    MOSUNNY   69  58  67 W16       29.94F                  
WASHINGTON DC  MOCLDY    82  71  69 S6        29.70R